Overview Statistics Trail Chart Weather Telemetry Raw packets
 

This is the latest recevied weather packets stored in our database for station/object K1RFS. If no packets are shown the sender has not sent any weather packets the latest 10 day(s).

<< 21 22 23 24 25 26 27 >>
Time Temp. Humidity Pressure Rain* Wind** Luminosity Snow
1788548598 27.78° C 19% 999.8 hPa 0 mm - 571 W/m² -
1788548294 28.33° C 18% 999.9 hPa 0 mm - 566 W/m² -
1788547989 27.78° C 19% 1000.1 hPa 0 mm - 566 W/m² -
1788547689 27.78° C 20% 1000.2 hPa 0 mm - 557 W/m² -
1788547384 27.78° C 19% 1000.1 hPa 0 mm - 557 W/m² -
1788547080 27.78° C 20% 1000.5 hPa 0 mm - 549 W/m² -
1788546779 27.78° C 21% 1000.5 hPa 0 mm - 552 W/m² -
1788546475 27.78° C 21% 1000.5 hPa 0 mm - 544 W/m² -
1788546170 27.22° C 21% 1000.1 hPa 0 mm - 538 W/m² -
1788545866 27.22° C 21% 1000.6 hPa 0 mm - 533 W/m² -
1788545565 27.22° C 21% 1000.4 hPa 0 mm - 527 W/m² -
1788545261 27.22° C 21% 1000.6 hPa 0 mm - 519 W/m² -
1788544956 26.67° C 22% 1000.6 hPa 0 mm - 512 W/m² -
1788544655 26.67° C 22% 1000.6 hPa 0 mm - 511 W/m² -
1788544353 26.67° C 23% 1000.6 hPa 0 mm - 39 W/m² -
1788544049 26.11° C 24% 1000.5 hPa 0 mm - 37 W/m² -
1788543745 26.11° C 25% 1000.8 hPa 0 mm - 35 W/m² -
1788543440 26.11° C 25% 1000.7 hPa 0 mm - 34 W/m² -
1788543140 26.11° C 25% 1000.8 hPa 0 mm - 34 W/m² -
1788542837 26.11° C 26% 1000.7 hPa 0 mm - 33 W/m² -
1788542536 25.56° C 25% 1000.8 hPa 0 mm - 33 W/m² -
1788542231 25.56° C 26% 1000.7 hPa 0 mm - 32 W/m² -
1788541926 25.56° C 27% 1000.8 hPa 0 mm - 33 W/m² -
1788541623 25.56° C 24% 1000.5 hPa 0 mm - 32 W/m² -
1788541343 25° C 24% 1000.5 hPa 0 mm - 31 W/m² -

* Rain latest hour (hover to see other rain measurements)
** Current wind speed in m/s (hover to see current wind gust speed)